Location: Newark
(25.4800°N, 85.7200°E)
Time: 09:45:46
(UTC+00:00)

Vanguard 1 Rocket - Pass Details

Date: 25 August 2019
Orbit: 652 x 4225 km, 34.3° (Epoch: 15 September)

Event Time Altitude Azimuth Distance (km) Brightness Sun altitude
Rises 17:30:07 0° 233° (SW) 4,335 - -51.9°
Reaches altitude 10° 17:33:41 10° 229° (SW) 2,926 - -52.2°
Maximum altitude 17:39:53 54° 153° (SSE) 933 - -52.6°
Drops below altitude 10° 17:44:16 10° 75° (ENE) 2,075 - -52.9°
Sets 17:46:24 0° 70° (ENE) 2,956 - -53.0°
